Regional Weather Roundup
Issued by NWS

Home | Current Version | Previous Version | Text Only | Print | Product List | Glossary Off
Versions: 1 2 3 4 5 6 7 8 9 10 11 12 13 14 15 16 17 18 19 20 21 22 23 24 25 26 27 28 29 30 31 32 33 34 35 36 37 38 39 40 41 42 43 44 45 46 47 48 49 50

000
ASUS45 KCYS 300610
RWRWY

WYOMING REGIONAL WEATHER ROUNDUP
NATIONAL WEATHER SERVICE CHEYENNE WY
1200 AM MDT MON MAY 30 2016

NOTE:  "FAIR" INDICATES FEW OR NO CLOUDS BELOW 12,000 FEET
WITH NO SIGNIFICANT WEATHER AND/OR OBSTRUCTIONS TO VISIBILITY.

WYZ001-300700-
YELLOWSTONE NATIONAL PARK

CITY           SKY/WX    TMP DP  RH WIND       PRES   REMARKS
LK YELLOWSTONE   N/A     42  38  85 CALM      30.19F
6HR MIN TEMP:  41; 6HR MAX TEMP:  58; 6HR PCP:  0.04;

W YELLOWSTONE  NOT AVBL

$$
WYZ002>013-054>058-071-098>099-300700-
NORTHERN WYOMING

CITY           SKY/WX    TMP DP  RH WIND       PRES   REMARKS
JACKSON        FAIR      48  39  71 SW8       30.13S
CODY           FAIR      57  37  47 CALM      29.97F
GREYBULL       FAIR      64  35  34 CALM      29.90F
6HR MIN TEMP:  64; 6HR MAX TEMP:  79;

WORLAND        FAIR      65  38  36 SW14      29.92F
6HR MIN TEMP:  60; 6HR MAX TEMP:  77;

SHERIDAN       MOCLDY    54  46  74 CALM      29.92F
6HR MIN TEMP:  52; 6HR MAX TEMP:  76;

BUFFALO        CLOUDY    62  38  40 W3        29.99F
6HR MIN TEMP:  55; 6HR MAX TEMP:  74;

GILLETTE       FAIR      58  45  62 SE9       29.96F
6HR MIN TEMP:  47; 6HR MAX TEMP:  75;

HULETT         FAIR      59  46  63 SE7       29.99S
NEWCASTLE      FAIR      64  37  36 SE7       29.99F

$$
WYZ014>020-022>026-101>103-300700-
CENTRAL WYOMING

CITY           SKY/WX    TMP DP  RH WIND       PRES   REMARKS
BIG PINEY      MOCLDY    46  40  79 SW9       30.20F
6HR MIN TEMP:  46; 6HR MAX TEMP:  64; 6HR PCP:  0.03;

PINEDALE       FAIR      45  39  81 S5        30.20F
DUBOIS         FAIR      48  30  49 N7        30.12F
LANDER         FAIR      57  36  45 W6        30.04F
6HR MIN TEMP:  54; 6HR MAX TEMP:  68; 6HR PCP: TRACE;

RIVERTON       FAIR      56  41  57 SW13      30.05F
6HR MIN TEMP:  56; 6HR MAX TEMP:  74; 6HR PCP: TRACE;

CASPER         CLOUDY    60  39  45 SW15G22   30.05R
6HR MIN TEMP:  51; 6HR MAX TEMP:  74; 6HR PCP: TRACE;

DOUGLAS          N/A    N/A N/A N/A MISG      30.02F

$$
WYZ021-027>030-104>119-300700-
SOUTHERN WYOMING

CITY           SKY/WX    TMP DP  RH WIND       PRES   REMARKS
EVANSTON       MOCLDY    47  41  80 N12       30.22F
6HR MIN TEMP:  47; 6HR MAX TEMP:  64; 6HR PCP: TRACE;

KEMMERER       RAIN      45  41  87 W6        30.25S
FORT BRIDGER   PTCLDY    48  41  76 NW13      30.24R
ROCK SPRINGS   MOCLDY    50  39  66 N7        30.15F
6HR MIN TEMP:  50; 6HR MAX TEMP:  61;

DIXON          FAIR      46  40  79 NE6       30.18F
RAWLINS        FAIR      48  33  56 S3        30.15S
6HR MIN TEMP:  45; 6HR MAX TEMP:  66;

SARATOGA       FAIR      45  36  70 SE13      30.18S
LARAMIE        FAIR      44  38  79 SW10      30.16F
6HR MIN TEMP:  44; 6HR MAX TEMP:  53; 6HR PCP: TRACE;

CHEYENNE       FAIR      51  40  65 SW10      30.12F
6HR MIN TEMP:  51; 6HR MAX TEMP:  65;

TORRINGTON     FAIR      54  46  74 E7        30.01R
6HR MIN TEMP:  52; 6HR MAX TEMP:  75;

PINE BLUFFS    FAIR      48  45  87 SE5       30.10R

$$



USA.gov is the U.S. government's official web portal to all federal, state and local government web resources and services.